Location: Poughquag
(41.6090°N, 73.6820°W)
Time: 01:24:50
(UTC-04:00)

X-37B - Pass Details

Date: 12 June 2023
Orbit: 277 x 277 km, 45.0° (Epoch: 01 November)

Event Time Altitude Azimuth Distance (km) Brightness Sun altitude
Exits shadow 04:14:48 14° 265° (W) 917 2.0 -10.4°
Maximum altitude 04:16:47 58° 344° (NNW) 328 0.3 -10.1°
Drops below altitude 10° 04:19:12 10° 66° (ENE) 1,102 4.2 -9.8°
Sets 04:21:08 0° 70° (ENE) 1,916 5.5 -9.5°
